• în România
  • Lista ţărilor
  • Pe 7 zile
  • Temperatura apei
  • Hartă satelitară
  • Meteo pe hartă
  • Widget-uri
  • user-avatar
    Intrare

    Meteo pe oră la Primorsko

    Astăzi, 18 Iunie, Luni

    Timp Temperatura Precipitaţii Vânt Presiune Umiditate
    00:00 +21°C° 0 mm 1 m/s 756 mmHg 89%
    01:00 +20°C° 0 mm 2 m/s 755 mmHg 90%
    02:00 +19°C° 0 mm 2 m/s 755 mmHg 91%
    03:00 +19°C° 0,3 mm 2 m/s 755 mmHg 92%
    04:00 +19°C° 0,3 mm 2 m/s 755 mmHg 92%
    05:00 +19°C° 0,3 mm 2 m/s 755 mmHg 93%
    06:00 +21°C° 0 mm 3 m/s 756 mmHg 87%
    07:00 +22°C° 0 mm 3 m/s 756 mmHg 81%
    08:00 +25°C° 0 mm 4 m/s 756 mmHg 75%
    09:00 +26°C° 0,1 mm 4 m/s 756 mmHg 71%
    10:00 +28°C° 0,1 mm 4 m/s 756 mmHg 66%
    11:00 +29°C° 0,1 mm 4 m/s 755 mmHg 62%
    12:00 +29°C° 0,4 mm 4 m/s 755 mmHg 63%
    13:00 +29°C° 0,4 mm 4 m/s 755 mmHg 64%
    14:00 +29°C° 0,4 mm 5 m/s 755 mmHg 64%
    15:00 +29°C° 0,3 mm 5 m/s 755 mmHg 64%
    16:00 +29°C° 0,3 mm 5 m/s 755 mmHg 63%
    17:00 +28°C° 0,3 mm 5 m/s 755 mmHg 62%
    18:00 +27°C° 0 mm 5 m/s 756 mmHg 70%
    19:00 +25°C° 0 mm 5 m/s 756 mmHg 79%
    20:00 +22°C° 0 mm 4 m/s 756 mmHg 87%
    21:00 +22°C° 0 mm 4 m/s 756 mmHg 89%
    22:00 +21°C° 0 mm 4 m/s 757 mmHg 92%
    23:00 +20°C° 0 mm 3 m/s 757 mmHg 94%

    Mâine, 19 Iunie, Marţi

    Timp Temperatura Precipitaţii Vânt Presiune Umiditate
    00:00 +20°C° 0 mm 3 m/s 757 mmHg 94%
    01:00 +20°C° 0 mm 3 m/s 757 mmHg 95%
    02:00 +20°C° 0 mm 3 m/s 757 mmHg 95%
    03:00 +19°C° 0 mm 4 m/s 757 mmHg 94%
    04:00 +19°C° 0 mm 4 m/s 758 mmHg 94%
    05:00 +19°C° 0 mm 4 m/s 758 mmHg 93%
    06:00 +21°C° 0 mm 5 m/s 758 mmHg 83%
    07:00 +23°C° 0 mm 5 m/s 758 mmHg 73%
    08:00 +26°C° 0 mm 6 m/s 758 mmHg 63%
    09:00 +27°C° 0 mm 6 m/s 759 mmHg 57%
    10:00 +28°C° 0 mm 6 m/s 759 mmHg 51%
    11:00 +29°C° 0 mm 7 m/s 759 mmHg 45%
    12:00 +30°C° 0 mm 7 m/s 759 mmHg 46%
    13:00 +30°C° 0 mm 7 m/s 759 mmHg 46%
    14:00 +30°C° 0 mm 7 m/s 759 mmHg 46%
    15:00 +29°C° 0 mm 7 m/s 759 mmHg 50%
    16:00 +29°C° 0 mm 7 m/s 759 mmHg 53%
    17:00 +28°C° 0 mm 7 m/s 759 mmHg 56%
    18:00 +26°C° 0 mm 6 m/s 759 mmHg 63%
    19:00 +24°C° 0 mm 6 m/s 759 mmHg 71%
    20:00 +22°C° 0 mm 5 m/s 759 mmHg 79%
    21:00 +22°C° 0 mm 5 m/s 760 mmHg 82%
    22:00 +21°C° 0 mm 5 m/s 760 mmHg 86%
    23:00 +21°C° 0 mm 4 m/s 760 mmHg 90%

    Poimâine, 20 Iunie, Miercuri

    Timp Temperatura Precipitaţii Vânt Presiune Umiditate
    00:00 +21°C° 0 mm 4 m/s 760 mmHg 90%
    01:00 +20°C° 0 mm 4 m/s 760 mmHg 91%
    02:00 +20°C° 0 mm 4 m/s 760 mmHg 91%
    03:00 +20°C° 0 mm 4 m/s 760 mmHg 89%
    04:00 +20°C° 0 mm 5 m/s 760 mmHg 88%
    05:00 +19°C° 0 mm 5 m/s 760 mmHg 86%
    06:00 +21°C° 0 mm 5 m/s 761 mmHg 77%
    07:00 +23°C° 0 mm 6 m/s 761 mmHg 68%
    08:00 +26°C° 0 mm 6 m/s 761 mmHg 59%
    09:00 +28°C° 0 mm 6 m/s 761 mmHg 52%
    10:00 +29°C° 0 mm 7 m/s 761 mmHg 46%
    11:00 +32°C° 0 mm 7 m/s 761 mmHg 39%
    12:00 +32°C° 0 mm 7 m/s 761 mmHg 38%
    13:00 +32°C° 0 mm 7 m/s 761 mmHg 37%
    14:00 +33°C° 0 mm 6 m/s 761 mmHg 36%
    15:00 +32°C° 0 mm 6 m/s 761 mmHg 39%
    16:00 +30°C° 0 mm 6 m/s 761 mmHg 41%
    17:00 +30°C° 0 mm 6 m/s 760 mmHg 43%
    18:00 +27°C° 0 mm 6 m/s 761 mmHg 54%
    19:00 +25°C° 0 mm 5 m/s 761 mmHg 65%
    20:00 +22°C° 0 mm 4 m/s 761 mmHg 76%
    21:00 +22°C° 0 mm 4 m/s 761 mmHg 81%
    22:00 +21°C° 0 mm 3 m/s 761 mmHg 86%
    23:00 +20°C° 0 mm 3 m/s 761 mmHg 91%

    21 Iunie, Joi

    Timp Temperatura Precipitaţii Vânt Presiune Umiditate
    00:00 +20°C° 0 mm 3 m/s 761 mmHg 91%
    01:00 +20°C° 0 mm 3 m/s 761 mmHg 90%
    02:00 +20°C° 0 mm 3 m/s 761 mmHg 90%
    03:00 +19°C° 0 mm 3 m/s 760 mmHg 89%
    04:00 +19°C° 0 mm 3 m/s 760 mmHg 88%
    05:00 +19°C° 0 mm 4 m/s 760 mmHg 87%
    06:00 +21°C° 0 mm 4 m/s 760 mmHg 78%
    07:00 +23°C° 0 mm 4 m/s 760 mmHg 68%
    08:00 +27°C° 0 mm 4 m/s 760 mmHg 58%
    09:00 +28°C° 0 mm 4 m/s 760 mmHg 52%
    10:00 +30°C° 0 mm 4 m/s 760 mmHg 45%
    11:00 +32°C° 0 mm 4 m/s 759 mmHg 39%
    12:00 +33°C° 0 mm 4 m/s 759 mmHg 37%
    13:00 +33°C° 0 mm 4 m/s 759 mmHg 36%
    14:00 +33°C° 0 mm 4 m/s 758 mmHg 35%
    15:00 +33°C° 0 mm 4 m/s 758 mmHg 37%
    16:00 +33°C° 0 mm 3 m/s 758 mmHg 39%
    17:00 +31°C° 0 mm 3 m/s 758 mmHg 42%
    18:00 +29°C° 0 mm 2 m/s 758 mmHg 49%
    19:00 +27°C° 0 mm 2 m/s 758 mmHg 57%
    20:00 +24°C° 0 mm 1 m/s 758 mmHg 64%
    21:00 +24°C° 0 mm 1 m/s 758 mmHg 65%
    22:00 +23°C° 0 mm 1 m/s 758 mmHg 67%
    23:00 +20°C° 0 mm 0 m/s 758 mmHg 68%

    22 Iunie, Vineri

    Timp Temperatura Precipitaţii Vânt Presiune Umiditate
    00:00 +22°C° 0 mm 1 m/s 758 mmHg 68%
    01:00 +22°C° 0 mm 1 m/s 757 mmHg 69%
    02:00 +21°C° 0 mm 1 m/s 757 mmHg 70%
    03:00 +21°C° 0 mm 1 m/s 757 mmHg 70%
    04:00 +21°C° 0 mm 1 m/s 757 mmHg 70%
    05:00 +21°C° 0 mm 1 m/s 757 mmHg 71%
    06:00 +23°C° 0 mm 1 m/s 757 mmHg 64%
    07:00 +26°C° 0 mm 1 m/s 757 mmHg 58%
    08:00 +29°C° 0 mm 1 m/s 756 mmHg 51%
    09:00 +30°C° 0 mm 1 m/s 756 mmHg 47%
    10:00 +32°C° 0 mm 1 m/s 756 mmHg 43%
    11:00 +35°C° 0 mm 2 m/s 756 mmHg 40%
    12:00 +34°C° 0 mm 2 m/s 755 mmHg 41%
    13:00 +34°C° 0 mm 3 m/s 755 mmHg 42%
    14:00 +33°C° 0 mm 4 m/s 755 mmHg 43%
    15:00 +33°C° 0 mm 4 m/s 754 mmHg 43%
    16:00 +33°C° 0 mm 4 m/s 754 mmHg 44%
    17:00 +33°C° 0 mm 4 m/s 754 mmHg 44%
    18:00 +32°C° 0 mm 4 m/s 754 mmHg 47%
    19:00 +29°C° 0 mm 4 m/s 754 mmHg 51%
    20:00 +28°C° 0 mm 5 m/s 754 mmHg 54%
    21:00 +26°C° 0 mm 5 m/s 754 mmHg 57%
    22:00 +25°C° 0 mm 5 m/s 754 mmHg 60%
    23:00 +23°C° 0 mm 5 m/s 754 mmHg 63%

    23 Iunie, Sâmbătă

    Timp Temperatura Precipitaţii Vânt Presiune Umiditate
    00:00 +23°C° 0 mm 4 m/s 755 mmHg 64%
    01:00 +22°C° 0 mm 4 m/s 755 mmHg 66%
    02:00 +22°C° 0 mm 4 m/s 755 mmHg 67%
    03:00 +22°C° 0 mm 4 m/s 755 mmHg 70%
    04:00 +21°C° 0 mm 4 m/s 755 mmHg 74%
    05:00 +21°C° 0 mm 5 m/s 756 mmHg 77%
    06:00 +21°C° 0,3 mm 5 m/s 756 mmHg 77%
    07:00 +22°C° 0,3 mm 5 m/s 756 mmHg 76%
    08:00 +23°C° 0,3 mm 6 m/s 757 mmHg 76%
    09:00 +24°C° 0,2 mm 6 m/s 757 mmHg 71%
    10:00 +26°C° 0,2 mm 6 m/s 757 mmHg 66%
    11:00 +27°C° 0,2 mm 6 m/s 758 mmHg 60%
    12:00 +28°C° 0 mm 5 m/s 758 mmHg 57%
    13:00 +29°C° 0 mm 5 m/s 758 mmHg 53%
    14:00 +29°C° 0 mm 5 m/s 758 mmHg 49%
    15:00 +29°C° 0 mm 5 m/s 758 mmHg 53%
    16:00 +28°C° 0 mm 5 m/s 758 mmHg 56%
    17:00 +27°C° 0 mm 5 m/s 758 mmHg 60%
    18:00 +26°C° 0 mm 5 m/s 758 mmHg 66%
    19:00 +23°C° 0 mm 5 m/s 759 mmHg 73%
    20:00 +22°C° 0 mm 4 m/s 759 mmHg 79%
    21:00 +21°C° 0 mm 5 m/s 760 mmHg 80%
    22:00 +20°C° 0 mm 5 m/s 760 mmHg 82%
    23:00 +20°C° 0 mm 5 m/s 760 mmHg 83%
    Arată mai mult